Wind_Speed
31 33 34 35 37 37 37 37 37 37 36 35 35 35 36 36 33 32 23 21 7 5 8 4 6 11 12 3 8 14 10 6 7 6 5 4 5 8 10 10 8 9 9 5 4 3 7 15 14 4 6 5 1 2
32 33 36 38 38 38 38 36 34 34 35 34 33 34 35 35 33 31 19 22 23 8 5 10 9 4 2 4 11 8 11 11 10 5 5 3 5 5 11 9 14 7 7 6 10 7 14 5 5 6 3 3 5 3
36 35 36 37 38 39 39 39 37 36 35 34 35 36 36 34 33 33 25 18 21 10 17 17 7 9 7 6 2 4 7 4 9 8 6 4 7 6 5 8 12 13 15 5 8 8 10 10 10 12 10 10 6 4
38 39 37 38 38 39 41 40 38 36 34 33 34 34 35 34 34 31 29 20 17 6 4 8 17 25 12 16 14 8 12 11 8 6 7 3 3 6 6 8 9 8 5 3 7 10 11 12 14 18 4 11 11 6
41 40 40 39 40 39 40 40 40 38 34 32 32 32 33 33 32 30 29 24 20 18 3 5 17 18 16 23 16 13 10 10 10 4 3 3 7 6 6 3 6 12 6 5 4 8 9 11 17 12 10 12 10 9
42 44 43 41 40 40 40 39 40 39 36 33 31 32 31 32 30 27 13 33 32 24 6 2 6 8 12 12 13 8 10 12 8 4 4 3 4 3 3 4 12 16 16 16 21 22 24 24 14 9 10 12 13 12
44 42 42 43 43 43 41 40 40 38 37 34 31 32 32 31 32 33 9 14 27 26 5 4 3 5 15 11 9 8 7 5 4 5 6 10 7 5 3 11 15 18 16 21 27 23 24 24 17 12 12 12 16 11
43 43 42 42 42 43 42 40 39 39 35 32 31 30 29 27 27 36 12 9 15 30 6 3 3 3 14 7 7 8 5 4 4 5 4 7 9 8 6 10 16 22 29 39 40 28 27 25 23 20 15 16 14 15
43 44 45 44 42 42 40 42 40 38 36 34 31 27 24 24 27 29 25 10 20 16 8 4 6 5 14 3 5 5 7 3 5 5 9 8 6 8 9 17 21 22 30 30 29 29 27 29 31 26 21 19 17 19
45 45 46 44 45 43 42 42 40 39 36 33 29 22 13 22 15 20 19 8 15 13 12 7 8 4 12 8 5 6 5 3 3 6 8 7 15 30 30 28 27 30 27 25 27 27 27 25 24 26 27 22 21 22
45 47 48 47 46 45 45 43 42 39 37 35 18 12 15 26 18 16 9 10 7 3 9 18 25 7 11 7 3 8 4 4 4 5 5 5 6 15 33 46 52 48 41 38 38 37 33 26 27 22 23 22 22 23
32 32 43 56 52 50 46 50 46 46 37 39 20 25 21 14 8 7 5 7 5 7 9 20 25 15 11 12 6 8 4 5 6 5 4 5 4 14 26 24 27 29 31 32 31 31 31 31 27 25 26 25 27 24
34 32 33 36 48 50 59 51 52 50 43 38 16 12 14 12 9 7 12 4 7 9 12 21 14 15 9 11 4 7 7 5 3 4 5 3 4 17 17 17 19 17 17 21 23 21 22 24 26 26 27 28 28 29
39 38 36 34 35 47 48 62 56 51 50 18 12 8 4 7 9 6 12 13 14 18 19 26 22 8 9 8 5 5 6 4 5 8 12 3 18 18 20 23 25 25 21 18 20 21 18 19 27 27 30 32 32 32
43 42 40 37 38 41 51 53 60 52 20 10 11 6 9 11 22 21 21 31 22 25 25 23 13 10 6 4 5 5 5 7 7 10 7 22 20 23 23 20 15 13 15 18 12 10 17 24 28 31 31 29 31 30
46 42 42 40 42 44 51 63 54 39 8 10 8 9 16 13 11 24 22 26 31 29 25 17 4 4 5 4 7 8 5 7 8 10 17 17 20 22 21 12 13 10 9 8 11 15 19 23 26 28 29 29 29 28
48 25 47 47 45 46 58 46 23 15 11 6 4 16 21 20 16 25 24 24 34 28 11 6 9 8 5 5 9 6 11 17 17 16 11 8 12 16 11 12 14 12 11 11 16 16 21 24 24 27 30 29 26 26
39 33 49 48 53 57 39 21 13 10 6 7 7 12 17 21 21 26 25 30 28 30 28 10 12 12 6 6 10 12 18 20 23 21 17 13 12 10 11 12 12 12 11 17 20 18 21 26 25 29 29 27 27 26
37 47 54 55 60 30 7 9 9 6 4 7 15 15 20 25 28 30 25 31 32 38 20 14 6 9 12 12 10 16 21 23 21 18 16 11 10 14 15 15 12 11 16 21 20 20 22 25 26 29 27 28 27 28
41 53 56 60 48 12 6 5 10 3 6 7 12 17 9 19 21 27 32 33 32 30 16 9 11 13 12 27 27 16 17 17 18 17 14 13 15 17 14 15 13 15 19 19 19 19 23 23 22 24 25 28 25 26
52 60 58 52 27 7 6 8 7 3 7 8 16 13 5 9 15 20 22 30 32 19 8 13 18 19 18 13 14 18 16 13 17 18 16 15 15 13 14 12 14 20 22 23 23 25 25 24 25 25 25 25 21 21
50 59 39 25 7 3 5 5 10 13 3 7 15 12 4 2 5 11 14 17 13 19 25 22 15 13 19 16 14 11 11 10 13 14 13 14 14 15 16 17 22 23 22 24 25 26 25 24 26 24 26 27 24 23
52 32 18 8 5 3 2 13 4 9 4 8 11 6 3 4 8 13 5 7 15 22 22 20 15 17 14 14 13 13 13 16 15 15 13 12 10 13 15 18 22 24 23 24 25 28 25 26 27 27 28 28 27 24
34 8 5 5 4 4 4 4 7 7 6 7 6 5 6 4 12 3 5 9 15 16 21 23 21 16 14 14 16 17 17 16 13 14 14 13 14 15 16 17 19 22 24 26 27 28 28 29 29 27 26 28 26 21
7 5 7 4 6 6 5 4 3 4 4 5 6 5 5 8 5 5 4 4 19 21 24 24 27 24 23 22 24 23 22 22 19 19 17 16 16 16 16 17 19 22 25 28 30 32 33 31 27 25 24 26 24 21
4 5 4 4 5 5 5 5 5 5 5 3 3 7 7 5 5 5 3 9 16 24 30 30 26 23 24 24 20 21 24 21 20 17 16 17 20 22 22 23 23 24 29 31 33 34 33 30 26 24 23 23 22 19
3 3 4 3 7 9 4 5 14 5 4 5 5 5 6 7 8 4 4 7 8 13 17 25 22 20 18 17 19 16 18 18 16 16 17 17 18 18 19 24 27 26 30 31 29 28 26 26 26 24 23 22 20 18
2 3 5 4 5 5 3 3 3 4 4 8 11 7 7 7 3 3 4 8 9 11 14 16 16 21 17 17 22 23 20 17 16 18 16 15 16 17 19 23 24 26 26 24 23 23 22 21 22 22 21 19 18 17
3 8 7 7 4 3 2 2 3 2 1 13 5 4 3 4 3 4 3 5 6 6 7 10 13 17 18 19 19 18 16 17 19 21 20 18 21 22 22 23 23 22 19 21 21 19 18 18 17 16 16 16 16 14
3 4 4 3 2 2 3 4 4 5 3 5 7 5 4 3 2 3 2 2 6 7 9 12 14 15 17 16 15 13 14 18 19 19 22 21 23 25 25 23 21 19 20 20 21 22 20 18 17 17 17 17 16 14
6 4 4 3 3 3 6 7 9 9 6 5 7 6 6 5 5 3 4 5 5 6 8 10 11 11 11 13 13 15 17 18 17 19 16 15 18 21 23 21 19 19 20 20 21 20 20 19 18 17 16 15 14 13
3 2 4 3 3 8 8 2 3 3 3 3 3 3 4 3 3 2 2 5 4 5 6 9 11 10 10 10 12 14 15 17 17 13 10 11 14 18 19 18 17 18 18 18 17 17 16 16 15 14 13 13 13 12
7 9 10 7 5 4 3 4 3 3 3 3 3 3 3 3 3 1 4 6 8 9 10 11 11 10 10 11 13 13 14 15 13 11 10 12 14 16 17 16 15 16 16 16 15 15 15 15 13 12 12 11 11 10
Wind_Direction
196 196 199 191 188 190 194 197 198 198 198 199 198 199 200 199 200 204 214 218 218 240 266 299 317 1 317 245 208 183 176 218 191 211 204 207 239 236 241 236 167 170 173 185 183 239 251 258 242 210 97 134 192 288
202 199 198 197 197 197 196 195 196 194 196 198 197 198 198 198 199 203 210 228 230 246 271 283 262 321 353 24 352 243 200 173 188 196 223 197 227 232 232 239 225 191 202 175 182 202 232 229 119 140 162 255 291 300
204 203 201 200 199 198 199 197 198 199 202 203 202 202 200 198 198 202 202 220 217 244 259 264 273 232 280 294 292 331 232 256 224 214 238 237 240 217 224 231 250 263 221 212 235 250 266 181 256 244 231 244 227 200
204 203 201 200 200 200 199 199 202 202 204 203 204 204 202 200 198 198 201 210 208 178 231 268 251 257 268 263 268 270 300 308 297 279 237 246 245 264 274 280 267 238 301 238 270 258 257 272 266 279 244 192 189 208
204 203 201 200 199 200 200 200 201 202 204 201 202 200 197 196 195 196 202 211 210 193 198 269 258 257 259 264 272 262 271 287 281 268 243 243 263 282 268 320 264 249 221 223 236 248 236 255 265 282 220 188 196 209
204 205 204 201 200 200 200 199 199 201 201 201 200 198 196 192 188 186 208 221 218 211 227 245 281 251 235 251 247 241 244 257 247 267 300 260 255 303 267 246 244 256 260 271 271 271 274 274 256 266 231 212 207 211
205 205 204 204 204 204 201 199 198 198 200 199 198 194 195 197 195 186 197 214 223 204 234 202 228 240 217 227 229 217 228 235 265 258 229 249 239 197 250 248 255 267 273 266 263 268 265 255 254 249 226 231 211 205
206 206 204 203 203 203 204 203 200 196 198 197 196 195 195 196 200 203 192 177 186 187 234 231 154 189 183 181 180 198 201 224 247 251 259 253 273 241 250 250 249 247 249 255 256 256 249 260 256 251 221 199 199 194
207 207 207 206 205 204 200 199 196 192 189 191 190 188 186 192 203 207 194 177 186 181 191 229 177 168 174 153 174 148 190 208 242 246 233 247 236 230 249 253 252 249 245 252 258 263 266 265 260 248 203 196 196 199
209 209 206 205 204 204 200 198 196 193 188 183 171 175 193 198 185 184 195 210 207 208 213 206 235 142 163 152 150 139 177 213 230 224 222 236 242 246 250 262 270 262 255 260 262 261 258 256 262 253 196 196 198 203
205 208 207 206 205 205 202 196 192 187 182 176 181 186 170 172 159 170 193 191 188 224 201 204 209 144 179 163 152 199 193 198 230 211 209 232 240 227 240 242 246 254 263 265 264 267 268 267 260 215 189 197 198 204
192 195 199 206 204 200 196 194 187 185 181 180 160 152 155 169 194 191 197 164 178 200 200 197 191 158 160 168 155 188 218 199 237 182 200 244 215 237 243 248 254 255 256 259 260 259 258 249 252 207 196 196 201 198
191 190 190 192 196 196 197 188 193 185 179 178 169 182 171 173 193 209 163 183 178 192 190 183 162 152 155 188 175 181 215 217 200 225 236 229 254 258 266 273 279 278 266 263 271 269 260 246 223 207 198 197 196 194
194 192 190 189 191 195 185 193 188 179 178 179 188 175 229 158 191 185 182 174 197 171 167 178 155 157 173 175 172 213 204 200 230 229 229 187 240 256 262 265 271 271 270 268 269 270 246 232 195 193 196 197 194 195
197 196 196 197 195 191 191 180 177 164 158 159 188 211 204 194 202 189 185 186 181 176 172 164 168 163 170 193 201 213 201 225 234 246 255 246 251 257 260 263 258 266 264 263 252 236 208 199 193 186 188 192 198 203
201 196 199 199 195 192 193 177 168 174 193 175 208 192 196 197 192 198 193 185 183 172 170 157 130 189 197 212 192 206 202 225 230 231 241 245 246 254 257 250 247 242 235 238 217 210 199 196 188 185 184 197 199 200
182 184 195 188 183 183 170 155 157 173 174 217 204 217 202 197 190 194 201 192 184 174 168 161 177 198 149 220 210 210 221 231 242 278 278 267 244 253 233 233 233 228 222 189 209 200 194 192 192 186 189 191 192 193
174 175 176 172 172 157 151 162 161 171 218 197 191 211 207 192 183 187 192 192 182 179 181 197 195 194 199 197 213 227 237 244 246 255 257 264 238 216 215 225 239 225 200 191 203 203 195 191 189 183 191 184 186 188
164 167 167 162 160 148 119 146 166 175 198 178 185 184 208 202 187 186 195 199 190 186 184 202 219 218 221 230 250 242 231 234 243 249 241 223 204 217 222 225 232 205 185 197 197 199 186 186 180 180 188 183 187 187
163 162 162 166 158 139 112 111 163 174 167 196 183 157 179 209 197 193 191 202 194 188 199 208 217 220 210 224 233 250 244 250 239 229 197 214 230 226 220 221 211 185 188 191 184 181 173 171 178 191 190 185 189 189
154 159 160 163 166 141 123 135 150 123 136 140 152 151 146 184 186 192 198 200 204 212 210 220 224 224 235 243 237 235 244 236 244 233 209 208 216 203 199 204 186 186 187 180 178 178 178 177 179 192 185 181 190 189
148 158 150 153 123 92 88 156 142 123 112 152 137 139 145 154 153 191 197 210 217 212 214 222 226 228 236 241 242 238 238 197 203 203 199 207 198 192 201 194 185 186 187 185 183 181 178 179 182 190 182 182 190 192
149 147 146 125 90 89 149 149 116 133 145 156 138 125 157 145 178 168 194 228 228 218 216 219 230 233 231 228 216 213 210 203 209 210 209 211 214 208 203 198 193 190 184 185 184 183 178 180 188 194 191 191 193 197
145 108 97 122 122 127 161 181 155 123 119 161 172 151 137 148 164 219 232 221 218 211 216 219 219 204 201 213 214 217 217 211 212 231 235 218 201 201 201 199 196 200 194 188 186 179 182 190 197 199 197 196 198 203
114 140 153 139 153 164 176 133 178 125 148 165 148 146 154 156 176 208 232 215 203 203 209 211 213 206 211 224 236 238 243 237 225 222 234 208 198 197 195 195 196 195 193 183 183 187 193 198 200 203 197 198 202 204
110 203 193 127 149 148 157 142 152 176 122 112 127 127 158 172 177 231 218 208 207 205 207 205 205 211 223 226 228 220 221 225 209 211 214 210 205 214 208 197 192 188 191 197 196 195 198 201 204 203 200 202 202 207
156 145 147 172 153 129 110 122 130 107 142 167 154 157 169 186 205 192 156 166 158 165 192 211 209 218 226 227 219 213 214 216 213 210 214 212 213 226 221 203 190 190 196 200 201 204 206 206 205 203 202 201 206 215
151 142 134 109 83 91 91 96 135 151 180 153 150 180 191 199 171 137 180 207 212 221 228 228 221 215 215 219 216 209 213 224 214 206 206 200 202 201 198 198 198 203 202 198 200 206 207 208 207 204 203 209 216 221
102 123 112 118 101 104 131 155 159 101 9 168 159 160 119 69 116 155 212 240 220 206 205 200 199 203 207 211 217 228 225 217 207 196 192 181 181 186 196 196 197 199 201 199 198 197 198 200 201 204 211 219 224 225
148 128 98 100 94 105 80 16 91 130 58 94 111 108 104 96 84 138 118 185 195 194 208 210 215 214 215 218 219 221 204 202 205 209 182 183 186 189 183 184 189 194 191 190 188 186 186 189 195 203 211 217 222 226
127 108 95 90 100 82 121 135 126 121 120 91 96 123 129 137 101 103 151 162 188 211 217 214 212 216 211 197 190 181 181 187 187 176 186 195 186 180 181 184 187 187 187 188 189 191 192 196 205 211 214 218 224 229
85 106 122 110 106 134 130 104 100 99 121 125 116 120 119 101 73 23 93 141 143 174 188 182 176 170 181 186 185 178 181 169 167 173 178 183 188 187 186 185 185 186 185 184 189 196 201 207 210 212 214 217 223 229
122 112 108 106 135 156 150 152 111 92 84 93 80 82 56 69 90 140 138 158 153 166 167 175 180 168 161 164 167 167 163 165 165 167 169 171 178 180 180 180 179 180 185 190 194 197 201 204 207 210 214 218 226 232
Height
1343 1351 1359 1365 1374 1383 1392 1400 1408 1417 1424 1432 1440 1448 1456 1464 1470 1475 1481 1486 1489 1487 1484 1486 1489 1489 1487 1482 1487 1492 1500 1504 1506 1509 1507 1504 1502 1494 1493 1489 1503 1510 1518 1523 1529 1530 1522 1496 1495 1503 1502 1503 1505 1506
1341 1348 1357 1364 1372 1381 1389 1398 1406 1414 1423 1430 1438 1446 1454 1461 1467 1473 1481 1484 1487 1491 1488 1485 1488 1492 1492 1493 1494 1490 1490 1495 1498 1503 1500 1499 1498 1491 1490 1495 1485 1499 1494 1500 1503 1502 1493 1493 1494 1498 1500 1503 1503 1503
1337 1345 1353 1360 1369 1377 1386 1395 1404 1412 1421 1428 1437 1445 1453 1458 1464 1471 1480 1483 1487 1491 1489 1490 1487 1491 1492 1494 1494 1495 1492 1496 1493 1494 1496 1494 1493 1487 1489 1486 1483 1480 1480 1487 1489 1487 1487 1490 1494 1495 1495 1498 1499 1501
1331 1340 1348 1357 1365 1374 1384 1392 1401 1410 1418 1426 1435 1443 1449 1456 1462 1468 1475 1481 1486 1490 1492 1487 1486 1486 1488 1489 1493 1495 1494 1495 1495 1495 1494 1492 1492 1486 1485 1483 1481 1480 1480 1483 1486 1483 1486 1487 1489 1491 1491 1492 1496 1497
1326 1336 1344 1352 1362 1371 1380 1389 1399 1407 1416 1424 1432 1440 1447 1454 1462 1468 1474 1478 1483 1489 1490 1488 1484 1485 1486 1487 1491 1493 1495 1496 1495 1495 1492 1491 1489 1490 1488 1489 1485 1479 1481 1485 1485 1483 1484 1486 1487 1487 1488 1489 1491 1493
1321 1331 1340 1348 1358 1368 1376 1386 1395 1404 1412 1421 1429 1438 1445 1453 1461 1466 1473 1475 1477 1485 1490 1488 1484 1482 1485 1487 1490 1491 1494 1496 1495 1493 1492 1491 1492 1493 1492 1485 1481 1480 1480 1482 1479 1480 1481 1483 1483 1484 1485 1486 1488 1489
1316 1325 1334 1343 1354 1364 1373 1383 1392 1400 1408 1418 1427 1436 1444 1452 1456 1459 1464 1467 1472 1484 1485 1484 1482 1481 1482 1485 1487 1488 1491 1494 1494 1492 1490 1491 1491 1491 1487 1480 1481 1478 1478 1476 1474 1476 1475 1476 1476 1479 1481 1483 1484 1486
1310 1320 1329 1339 1349 1359 1369 1378 1388 1397 1406 1416 1426 1435 1442 1450 1458 1460 1463 1465 1469 1479 1484 1478 1476 1480 1480 1481 1485 1487 1490 1492 1491 1490 1487 1487 1488 1486 1475 1470 1472 1474 1475 1469 1465 1469 1470 1472 1473 1473 1474 1477 1480 1484
1304 1314 1324 1334 1344 1354 1364 1374 1385 1394 1405 1415 1425 1435 1443 1447 1449 1453 1463 1465 1466 1474 1473 1471 1464 1470 1477 1480 1482 1486 1488 1490 1490 1485 1484 1486 1481 1470 1461 1464 1466 1467 1461 1461 1463 1463 1464 1464 1465 1467 1468 1471 1475 1480
1298 1308 1318 1328 1338 1349 1360 1370 1381 1392 1404 1415 1426 1432 1432 1436 1447 1455 1463 1464 1463 1460 1464 1462 1461 1467 1472 1476 1481 1486 1486 1486 1482 1477 1478 1472 1461 1459 1460 1460 1458 1455 1455 1457 1456 1455 1456 1457 1458 1458 1456 1464 1468 1475
1292 1301 1311 1322 1333 1344 1355 1366 1378 1391 1404 1409 1415 1422 1430 1438 1446 1450 1453 1454 1453 1452 1452 1448 1455 1463 1468 1471 1476 1479 1479 1476 1474 1468 1468 1456 1445 1447 1451 1447 1442 1445 1448 1449 1449 1448 1448 1450 1450 1448 1451 1458 1464 1469
1287 1294 1302 1315 1325 1338 1350 1361 1374 1385 1393 1401 1410 1419 1429 1434 1437 1437 1436 1438 1442 1443 1440 1437 1441 1452 1462 1467 1470 1476 1473 1469 1462 1456 1459 1444 1438 1440 1435 1437 1437 1437 1438 1438 1438 1437 1438 1439 1441 1440 1445 1451 1457 1463
1285 1292 1301 1308 1318 1329 1343 1355 1366 1381 1390 1403 1409 1414 1414 1418 1419 1416 1416 1420 1421 1423 1423 1429 1439 1447 1456 1460 1463 1466 1465 1460 1456 1456 1442 1431 1432 1432 1432 1431 1430 1431 1430 1430 1431 1430 1429 1431 1433 1435 1440 1445 1451 1457
1282 1290 1299 1307 1316 1324 1335 1347 1362 1374 1386 1393 1396 1397 1394 1395 1397 1394 1397 1402 1406 1412 1418 1424 1433 1442 1446 1451 1455 1453 1450 1448 1443 1428 1425 1426 1427 1426 1427 1426 1426 1425 1424 1424 1424 1423 1422 1424 1427 1432 1436 1439 1445 1450
1277 1287 1297 1307 1315 1324 1333 1345 1355 1367 1371 1382 1388 1381 1384 1380 1384 1383 1388 1395 1401 1408 1414 1423 1431 1435 1439 1443 1440 1438 1439 1433 1419 1416 1419 1415 1418 1419 1418 1418 1418 1418 1418 1418 1420 1418 1418 1418 1421 1427 1432 1437 1442 1446
1273 1287 1293 1302 1312 1322 1331 1340 1353 1365 1368 1371 1372 1366 1371 1373 1376 1380 1383 1388 1395 1402 1411 1419 1427 1431 1431 1428 1428 1426 1424 1417 1409 1405 1408 1411 1411 1411 1411 1412 1412 1413 1415 1416 1416 1415 1417 1418 1422 1426 1431 1434 1440 1445
1267 1272 1281 1295 1309 1321 1328 1334 1348 1358 1361 1359 1358 1359 1362 1366 1369 1374 1378 1383 1390 1396 1402 1407 1417 1417 1418 1419 1414 1409 1409 1399 1403 1405 1406 1406 1406 1406 1408 1409 1409 1410 1411 1414 1412 1413 1416 1419 1422 1426 1429 1434 1439 1444
1264 1269 1282 1294 1306 1316 1325 1337 1346 1352 1353 1352 1354 1355 1357 1361 1365 1370 1374 1380 1382 1387 1396 1397 1398 1401 1402 1403 1397 1395 1399 1399 1401 1402 1403 1403 1402 1404 1404 1406 1407 1408 1408 1410 1410 1412 1414 1416 1420 1425 1429 1433 1437 1442
1259 1271 1284 1295 1305 1315 1325 1338 1344 1346 1349 1346 1350 1351 1354 1357 1359 1364 1372 1374 1375 1380 1386 1392 1392 1389 1386 1386 1389 1390 1391 1393 1394 1396 1398 1398 1399 1400 1401 1402 1403 1405 1407 1407 1408 1409 1413 1417 1420 1423 1426 1431 1435 1439
1266 1278 1289 1299 1309 1318 1326 1333 1339 1342 1340 1345 1346 1349 1355 1357 1360 1362 1366 1372 1374 1378 1382 1378 1374 1377 1378 1381 1384 1385 1386 1388 1389 1391 1392 1393 1395 1395 1397 1398 1400 1403 1405 1406 1408 1410 1414 1418 1422 1424 1426 1429 1434 1438
1274 1285 1296 1306 1313 1318 1324 1328 1335 1335 1338 1341 1346 1350 1354 1355 1357 1360 1363 1366 1370 1368 1369 1370 1372 1374 1376 1379 1380 1381 1383 1384 1385 1387 1388 1390 1391 1392 1393 1395 1398 1401 1402 1404 1406 1410 1413 1417 1420 1422 1426 1430 1433 1437
1275 1288 1300 1307 1311 1318 1321 1326 1329 1334 1340 1342 1344 1349 1354 1355 1356 1359 1361 1362 1360 1360 1363 1366 1369 1371 1373 1375 1377 1378 1379 1381 1381 1383 1385 1385 1386 1388 1389 1391 1395 1397 1400 1402 1405 1408 1413 1416 1419 1422 1425 1429 1432 1435
1282 1293 1298 1303 1311 1317 1323 1324 1327 1331 1338 1342 1344 1349 1353 1354 1356 1360 1360 1358 1354 1355 1359 1363 1366 1367 1369 1371 1373 1375 1376 1378 1380 1381 1381 1382 1384 1386 1387 1389 1391 1393 1396 1400 1403 1407 1411 1414 1417 1420 1423 1426 1429 1432
1286 1292 1298 1307 1312 1317 1319 1321 1323 1327 1334 1336 1340 1341 1349 1353 1356 1357 1350 1345 1346 1350 1355 1359 1362 1365 1367 1369 1369 1371 1373 1375 1377 1377 1378 1379 1380 1382 1384 1386 1388 1390 1393 1396 1400 1405 1409 1411 1414 1417 1421 1423 1426 1429
1293 1302 1305 1307 1310 1314 1315 1316 1316 1319 1327 1329 1332 1340 1345 1349 1349 1349 1342 1338 1342 1344 1349 1353 1355 1357 1360 1362 1365 1367 1368 1370 1372 1373 1372 1375 1377 1378 1381 1383 1385 1387 1389 1393 1397 1400 1405 1409 1412 1415 1418 1420 1423 1427
1292 1297 1297 1297 1303 1305 1308 1312 1316 1317 1319 1325 1329 1334 1338 1340 1341 1338 1332 1332 1334 1337 1341 1343 1347 1352 1354 1356 1359 1360 1360 1363 1366 1368 1368 1370 1371 1372 1375 1377 1379 1383 1386 1389 1392 1396 1401 1405 1409 1412 1416 1419 1422 1425
1289 1292 1294 1294 1294 1297 1302 1303 1306 1313 1320 1321 1324 1330 1333 1332 1330 1328 1329 1330 1332 1333 1336 1340 1344 1347 1350 1352 1353 1354 1355 1356 1361 1364 1365 1366 1368 1369 1371 1373 1376 1380 1382 1386 1391 1396 1399 1402 1406 1410 1413 1416 1419 1422
1290 1290 1291 1294 1295 1297 1300 1303 1306 1310 1310 1311 1318 1322 1322 1320 1321 1327 1327 1328 1329 1331 1333 1336 1338 1341 1344 1345 1345 1347 1351 1354 1356 1359 1360 1362 1364 1367 1370 1373 1376 1379 1382 1387 1391 1395 1399 1402 1405 1408 1411 1414 1417 1420
1291 1293 1296 1300 1301 1303 1304 1305 1305 1308 1309 1309 1311 1313 1318 1322 1324 1325 1326 1326 1328 1330 1331 1334 1336 1338 1339 1341 1343 1345 1348 1350 1352 1353 1356 1358 1361 1365 1368 1372 1375 1379 1383 1387 1391 1395 1398 1402 1405 1408 1411 1413 1415 1417
1292 1292 1295 1299 1299 1301 1306 1307 1307 1309 1311 1311 1312 1316 1320 1323 1324 1324 1326 1326 1328 1329 1331 1332 1334 1336 1337 1339 1340 1342 1344 1346 1349 1352 1353 1355 1359 1363 1367 1371 1375 1379 1382 1386 1389 1393 1397 1400 1404 1406 1409 1411 1413 1414
1292 1294 1297 1299 1303 1307 1308 1310 1311 1313 1313 1314 1315 1317 1320 1323 1325 1325 1326 1326 1327 1329 1330 1331 1332 1334 1335 1336 1337 1339 1342 1345 1348 1351 1355 1357 1360 1365 1368 1372 1375 1378 1382 1385 1389 1392 1395 1399 1402 1405 1407 1409 1411 1413
1293 1294 1296 1300 1306 1309 1310 1310 1311 1312 1315 1316 1317 1319 1320 1322 1324 1326 1326 1326 1328 1329 1330 1331 1332 1333 1334 1336 1338 1342 1344 1347 1350 1353 1356 1359 1363 1366 1370 1373 1376 1379 1382 1385 1389 1392 1395 1398 1400 1402 1405 1407 1409 1411
1296 1298 1299 1303 1307 1308 1311 1311 1312 1314 1315 1317 1319 1320 1322 1323 1326 1329 1328 1329 1330 1330 1331 1332 1333 1335 1337 1339 1342 1345 1347 1350 1353 1356 1358 1361 1364 1367 1370 1373 1376 1380 1383 1386 1388 1391 1394 1396 1399 1401 1403 1405 1407 1408